Regional Weather Roundup
Issued by NWS

Home | Current Version | Previous Version | Graphics & Text | Print | Product List | Glossary On
Versions: 1 2 3 4 5 6 7 8 9 10 11 12 13 14 15 16 17 18 19 20 21 22 23 24 25 26 27 28 29 30 31 32 33 34 35 36 37 38 39 40 41 42 43 44 45 46 47 48 49 50
000
ASUS43 KMPX 060501
RWRMN
WEATHER ROUNDUP FOR MINNESOTA
NATIONAL WEATHER SERVICE TWIN CITIES/CHANHASSEN MN
1100 PM CST THU MAR 05 2015


NOTE: "FAIR" INDICATES FEW OR NO CLOUDS BELOW 12,000 FEET WITH NO
SIGNIFICANT WEATHER AND/OR OBSTRUCTIONS TO VISIBILITY. N/A MEANS
CURRENT SKY AND/OR WEATHER CONDITIONS ARE NOT AVAILABLE.

MNZ060>063-068>070-060600-
   Twin Cities Metro

CITY           SKY/WX    TMP DP  RH WIND       PRES   REMARKS
TWIN CITIES    FAIR       9   0  67 S10       30.31F WCI  -5
ST PAUL        FAIR       8   2  76 SE10      30.33F WCI  -6
CRYSTAL        CLEAR     12   2  64 S12       30.28F WCI  -2
BLAINE         CLEAR     10   3  72 S10       30.27F WCI  -3
LAKEVILLE      FAIR       7   1  78 S9        30.31F WCI  -7
EDEN PRAIRIE   CLEAR     10   2  69 S14       30.28F WCI  -6
SOUTH ST PAUL  FAIR       9   1  72 S7        30.32F WCI  -3
LAKE ELMO      FAIR       9   1  72 S10       30.32F WCI  -6
$$
MNZ001>005-007-008-013>017-022>024-027-028-060600-
   Northwest Minnesota

CITY           SKY/WX    TMP DP  RH WIND       PRES   REMARKS
BEMIDJI        CLEAR     10   2  70 S8        30.04F WCI  -3
HALLOCK        CLOUDY    19  12  73 S17       29.94F WCI   4
ROSEAU         MOCLDY    18  10  73 S21G28    29.92F WCI   1
WARROAD        PTCLDY    18   9  68 SW16G25   29.92F WCI   3
THIEF RVR FALL PTCLDY    16   9  73 S17       29.98F WCI   0
CROOKSTON      MOCLDY    16  10  79 S18G26    30.01F WCI  -1
FOSSTON        PTCLDY    12   7  79 S20G28    30.02F WCI  -6
DETROIT LAKES  CLEAR     12   7  79 S10       30.08F WCI  -1
MOORHEAD       CLEAR     16  10  79 S20       30.09F WCI  -1
PARK RAPIDS    PTCLDY     8   0  69 S9        30.08F WCI  -5
MAHNOMEN       FAIR      12   5  73 S18       30.06F WCI  -5
$$
MNZ006-009>011-018-025>026-060600-
   North Central Minnesota

CITY           SKY/WX    TMP DP  RH WIND       PRES   REMARKS
BAUDETTE       CLOUDY    13   2  61 S17       29.94F WCI  -4
FLAG ISLAND    CLOUDY    16   7  67 SW17G24   29.90F WCI   0
INTL FALLS     PTCLDY    11  -2  56 SW13G23   30.01F WCI  -4
WASKISH        CLOUDY    12   3  67 S8G17     30.00F WCI   1
BIG FORK       CLEAR      9  -2  61 S14       30.06F WCI  -8
LONGVILLE      CLEAR      9   1  72 S10       30.11F WCI  -6
GRAND RAPIDS   CLEAR      5  -2  72 S15       30.09F WCI -13
CRANE LAKE     CLEAR      9  -6  52 S7        30.08F WCI  -3
ORR            PTCLDY     7  -6  56 S7        30.04F WCI  -5
COOK           PTCLDY     7  -2  66 S6        30.08F WCI  -3
WALKER         FAIR      10   1  68 S9        30.09F WCI  -4
$$
MNZ012-019>021-037-060600-
   Northeast Minnesota

CITY           SKY/WX    TMP DP  RH WIND       PRES   REMARKS
DULUTH         CLEAR      6  -3  66 SW13      30.16F WCI -10
ELY            PTCLDY     7  -4  61 SW10G16   30.09F WCI  -8
HIBBING        PTCLDY     4  -6  63 S6        30.12F WCI  -7
EVELETH        PTCLDY     5  -4  66 SW8       30.13F WCI  -8
DULUTH HARBOR  PTCLDY     7  -2  66 CALM      30.25F
TWO HARBORS    PTCLDY     7  -4  61 SW5       30.17F WCI  -2
SILVER BAY     PTCLDY     7  -4  61 SW6       30.16F WCI  -3
GRAND MARAIS     N/A     12  -4  48 W10G20    30.20F WCI  -1
G MARAIS ARPRT PTCLDY     1 -11  55 SW7       30.08F WCI -11
$$
MNZ029>031-032-039>041-046>048-054>057-064-060600-
   West Central Minnesota

CITY           SKY/WX    TMP DP  RH WIND       PRES   REMARKS
FERGUS FALLS   CLEAR     14   3  62 S14       30.15F WCI  -1
WHEATON        CLEAR     10   5  79 SE9       30.14F WCI  -2
MORRIS         CLEAR     12   5  73 SE12      30.13F WCI  -2
ALEXANDRIA     CLEAR     14   4  64 S13       30.13F WCI   0
ELBOW LAKE     FAIR      12   5  73 S16       30.12F WCI  -5
WADENA         PTCLDY     9   1  72 S7        30.11F WCI  -3
GLENWOOD       CLEAR     12   5  73 S15       30.15F WCI  -4
APPLETON       CLEAR     16   7  67 S9        30.16F WCI   4
BENSON         CLEAR     14   7  73 S12       30.16F WCI   0
ORTONVILLE     CLEAR     10   3  72 SE10      30.13F WCI  -3
MADISON        CLEAR     12   7  79 SE7       30.16F WCI   2
WILLMAR        FAIR      14   7  73 S12       30.20F WCI   0
$$
MNZ033>034-036-042>043-049>051-058-059-060600-
   Central Minnesota

CITY           SKY/WX    TMP DP  RH WIND       PRES   REMARKS
ST CLOUD       PTCLDY     8   0  69 S8        30.22F WCI  -4
SAUK CENTRE    FAIR       8   2  76 S10       30.17F WCI  -6
PAYNESVILLE    CLEAR     11   3  70 SE14G21   30.19F WCI  -5
AITKIN         PTCLDY     9   0  66 S6        30.15F WCI  -1
PINE RIVER     CLEAR      3  -2  78 S5        30.16F WCI  -6
BRAINERD       CLEAR      7   0  73 S12       30.16F WCI  -8
STAPLES        PTCLDY     7   0  72 S9        30.13F WCI  -7
LONG PRAIRIE   FAIR       9   1  72 SE12      30.16F WCI  -6
LITTLE FALLS   PTCLDY     9   1  72 SE7       30.19F WCI  -3
LITCHFIELD     CLEAR     12   5  73 CALM      30.22F
BUFFALO        CLEAR     11   2  68 S7        30.26F WCI   0
MAPLE LAKE     CLEAR     10   3  74 S7        30.25F WCI  -1
$$
MNZ037-044-045-052-053-060600-
   East Central Minnesota

CITY           SKY/WX    TMP DP  RH WIND       PRES   REMARKS
PRINCETON      CLEAR     10   1  67 S9        30.23F WCI  -2
MORA           PTCLDY     7   0  72 CALM      30.25F
CAMBRIDGE      FAIR       7  -2  66 S5        30.25F WCI  -2
RUSH CITY      PTCLDY     5  -2  73 S7        30.27F WCI  -7
MOOSE LAKE     FAIR       5  -2  72 CALM      30.20F
HINCKLEY       FAIR       3  -4  72 S7        30.25F WCI  -9
CLOQUET        CLEAR      5  -2  72 S8        30.17F WCI  -8
MCGREGOR       PTCLDY     7   1  78 S8        30.17F WCI  -6
$$
MNZ071>073-080-081-089-090-097-098-060600-
   Southwest Minnesota

CITY           SKY/WX    TMP DP  RH WIND       PRES   REMARKS
MONTEVIDEO     CLEAR     16   9  73 S12G17    30.18F WCI   3
GRANITE FALLS  CLEAR     14   7  75 SE13      30.20F WCI   0
CANBY          CLEAR     23   8  54 S14G24    30.14F WCI  10
MARSHALL       CLEAR     19   7  58 SW26G35   30.17F WCI   1
REDWOOD FALLS  CLEAR     13   5  70 S14       30.22F WCI  -2
OLIVIA         CLEAR     14   7  73 S12       30.21F WCI   0
PIPESTONE      CLEAR     16   7  67 S12       30.16F WCI   3
WINDOM         CLEAR     16   7  67 S15       30.21F WCI   1
WORTHINGTON    CLEAR     16   5  62 S20       30.22F WCI  -1
JACKSON        CLEAR     18   7  62 S15       30.24F WCI   3
TRACY          CLEAR     18   8  65 S22G28    30.17F WCI   1
SLAYTON        CLEAR     18   6  59 S16       30.18F WCI   3
$$
MNZ065>067-074>077-082>085-091>093-060600-
   South Central Minnesota

CITY           SKY/WX    TMP DP  RH WIND       PRES   REMARKS
MANKATO        CLEAR     10   3  72 S12G17    30.28F WCI  -4
NEW ULM        CLEAR     12   5  73 S16       30.25F WCI  -4
ST JAMES       CLEAR     16   7  67 SE16      30.27F WCI   0
FAIRMONT       CLEAR     12   3  67 S16       30.26F WCI  -4
GLENCOE        CLEAR     13   7  76 S7        30.25F WCI   3
FARIBAULT      CLEAR      9   1  72 S13       30.32F WCI  -7
OWATONNA       CLEAR      9   0  66 S18       30.30F WCI -10
WASECA         CLEAR     12   3  67 S16       30.33F WCI  -4
ALBERT LEA     PTCLDY     7   0  72 S8        30.32F WCI  -6
$$
MNZ078>079-086>088-094>096-060600-
   Southeast Minnesota

CITY           SKY/WX    TMP DP  RH WIND       PRES   REMARKS
ROCHESTER      PTCLDY     1  -5  75 S14       30.33F WCI -17
RED WING       PTCLDY     7  -2  66 SE3       30.36F
STANTON        CLEAR      9   1  72 S8        30.31F WCI  -4
DODGE CENTER   PTCLDY     5   0  78 S17       30.32F WCI -14
WINONA         PTCLDY     5  -2  72 SE3       30.44F
AUSTIN         PTCLDY     3  -2  78 S9        30.34F WCI -11
PRESTON        MOCLDY     1  -5  75 S15       30.37F WCI -18
$$
ABBREVIATIONS USED IN REMARKS
   TC - TEMPERATURES IN CELSIUS
  WCI - WIND CHILL INDEX
   HX - HEAT INDEX
  VSB - VISIBILITY
$$


USA.gov is the U.S. government's official web portal to all federal, state and local government web resources and services.